EWG187 EDDL-LIRF

Flight info

Callsign EWG187
Flight time 1h 51m
Altitude 35000
Route DODEN7Z/05R DODEN Y852 TUSUK DCT ULNOK L607 ABUKA DCT BATUB DCT TIRUL M738 NATAG DCT LORLO DCT ADOSA DCT GAVRA/N0397F190 Y345 RITEB
Aircraft A320/M-SDE3FGHIRWY/LB1

Departure

Time 2026-05-06 07:40
Airport Düsseldorf Airport (EDDL)

Arrival

Time 2026-05-06 09:32
Airport Rome–Fiumicino Leonardo da Vinci International Airport (LIRF)
Time Latitude Longitude Altitude Speed Heading
2026-05-06 06:37 51.27909 6.76249 129 ft 0 kts 61°
2026-05-06 07:31 51.27903 6.76232 123 ft 4 kts 61°
2026-05-06 07:31 51.27890 6.76195 123 ft 4 kts 61°
2026-05-06 07:31 51.27877 6.76157 123 ft 4 kts 61°
2026-05-06 07:31 51.27866 6.76126 123 ft 3 kts 60°
2026-05-06 07:32 51.27851 6.76091 123 ft 4 kts 47°
2026-05-06 07:32 51.27831 6.76062 123 ft 4 kts 31°
2026-05-06 07:32 51.27807 6.76044 124 ft 4 kts 13°
2026-05-06 07:32 51.27781 6.76039 125 ft 4 kts 359°
2026-05-06 07:33 51.27754 6.76041 125 ft 3 kts 359°
2026-05-06 07:33 51.27751 6.76041 125 ft 0 kts
2026-05-06 07:35 51.27769 6.76042 125 ft 5 kts
2026-05-06 07:35 51.27802 6.76042 124 ft 4 kts 356°
2026-05-06 07:35 51.27835 6.76010 126 ft 7 kts 310°
2026-05-06 07:35 51.27845 6.75915 129 ft 10 kts 273°
2026-05-06 07:36 51.27847 6.75844 129 ft 6 kts 272°
2026-05-06 07:36 51.27850 6.75813 129 ft 4 kts 283°
2026-05-06 07:36 51.27862 6.75741 124 ft 6 kts 281°
2026-05-06 07:36 51.27862 6.75709 127 ft 0 kts 268°
2026-05-06 07:37 51.27862 6.75704 126 ft 2 kts 268°
2026-05-06 07:37 51.27858 6.75651 129 ft 8 kts 253°
2026-05-06 07:38 51.27831 6.75590 128 ft 5 kts 230°
2026-05-06 07:38 51.27799 6.75521 127 ft 17 kts 233°
2026-05-06 07:38 51.27801 6.75377 123 ft 15 kts 331°
2026-05-06 07:38 51.27889 6.75309 123 ft 13 kts 334°
2026-05-06 07:39 51.27969 6.75249 123 ft 11 kts 337°
2026-05-06 07:39 51.27999 6.75274 119 ft 1 kts 65°
2026-05-06 07:39 51.28041 6.75363 122 ft 36 kts 52°
2026-05-06 07:39 51.28341 6.75978 128 ft 101 kts 50°
2026-05-06 07:40 51.28885 6.77111 129 ft 153 kts 51°
2026-05-06 07:40 51.29565 6.78529 651 ft 157 kts 50°
2026-05-06 07:40 51.30230 6.79937 1332 ft 159 kts 52°
2026-05-06 07:40 51.30917 6.81399 1734 ft 175 kts 52°
2026-05-06 07:41 51.31698 6.83048 1969 ft 197 kts 52°
2026-05-06 07:41 51.32582 6.84913 2241 ft 223 kts 53°
2026-05-06 07:41 51.33561 6.86993 2616 ft 246 kts 54°
2026-05-06 07:41 51.34531 6.89337 3270 ft 257 kts 64°
2026-05-06 07:42 51.35072 6.92133 4090 ft 263 kts 82°
2026-05-06 07:42 51.35079 6.95051 4754 ft 270 kts 98°
2026-05-06 07:42 51.34772 6.98056 4977 ft 270 kts 99°
2026-05-06 07:42 51.34465 7.01033 5671 ft 272 kts 99°
2026-05-06 07:43 51.34161 7.03994 6552 ft 274 kts 99°
2026-05-06 07:43 51.33849 7.07034 7392 ft 279 kts 100°
2026-05-06 07:43 51.33530 7.10170 8272 ft 286 kts 101°
2026-05-06 07:43 51.33208 7.13337 9145 ft 291 kts 101°
2026-05-06 07:44 51.32664 7.16462 9911 ft 293 kts 115°
2026-05-06 07:44 51.31652 7.19300 10635 ft 295 kts 129°
2026-05-06 07:44 51.30244 7.21768 10884 ft 316 kts 137°
2026-05-06 07:44 51.28615 7.24315 11039 ft 339 kts 137°
2026-05-06 07:45 51.26851 7.27071 11169 ft 360 kts 137°
2026-05-06 07:45 51.25059 7.29885 11610 ft 370 kts 137°
2026-05-06 07:45 51.23188 7.32824 12222 ft 374 kts 137°
2026-05-06 07:45 51.21328 7.35750 12848 ft 378 kts 137°
2026-05-06 07:46 51.19450 7.38710 13474 ft 382 kts 137°
2026-05-06 07:46 51.17550 7.41706 14035 ft 385 kts 137°
2026-05-06 07:46 51.15641 7.44710 14657 ft 388 kts 137°
2026-05-06 07:46 51.13706 7.47722 15279 ft 390 kts 137°
2026-05-06 07:47 51.11744 7.50731 15915 ft 393 kts 138°
2026-05-06 07:47 51.09767 7.53744 16495 ft 395 kts 138°
2026-05-06 07:47 51.07773 7.56773 17080 ft 398 kts 138°
2026-05-06 07:47 51.05787 7.59784 17648 ft 400 kts 138°
2026-05-06 07:48 51.03765 7.62849 18200 ft 403 kts 138°
2026-05-06 07:48 51.01706 7.65973 18683 ft 406 kts 138°
2026-05-06 07:48 50.99685 7.69043 19147 ft 408 kts 138°
2026-05-06 07:48 50.97597 7.72199 19628 ft 411 kts 140°
2026-05-06 07:49 50.95335 7.74971 20080 ft 411 kts 149°
2026-05-06 07:49 50.92899 7.77379 20526 ft 413 kts 149°
2026-05-06 07:49 50.90481 7.79752 20959 ft 415 kts 150°
2026-05-06 07:49 50.88014 7.82171 21383 ft 418 kts 150°
2026-05-06 07:50 50.85536 7.84595 21786 ft 420 kts 150°
2026-05-06 07:50 50.83044 7.87037 22205 ft 422 kts 150°
2026-05-06 07:50 50.80541 7.89494 22610 ft 424 kts 150°
2026-05-06 07:50 50.78029 7.91961 23005 ft 426 kts 150°
2026-05-06 07:51 50.75505 7.94439 23384 ft 428 kts 150°
2026-05-06 07:51 50.72958 7.96933 23707 ft 430 kts 150°
2026-05-06 07:51 50.70411 7.99420 24044 ft 431 kts 150°
2026-05-06 07:51 50.67860 8.01901 24499 ft 429 kts 150°
2026-05-06 07:52 50.65327 8.04362 24962 ft 427 kts 150°
2026-05-06 07:52 50.62770 8.06726 25429 ft 424 kts 155°
2026-05-06 07:52 50.60075 8.08502 25912 ft 419 kts 164°
2026-05-06 07:52 50.57258 8.09604 26396 ft 414 kts 173°
2026-05-06 07:53 50.54413 8.10092 26898 ft 410 kts 178°
2026-05-06 07:53 50.51572 8.10459 27404 ft 408 kts 178°
2026-05-06 07:53 50.48752 8.10825 27913 ft 406 kts 178°
2026-05-06 07:53 50.45942 8.11190 28444 ft 403 kts 178°
2026-05-06 07:54 50.43162 8.11553 28979 ft 400 kts 178°
2026-05-06 07:54 50.40405 8.11920 29523 ft 397 kts 178°
2026-05-06 07:54 50.37661 8.12285 30049 ft 393 kts 178°
2026-05-06 07:54 50.34948 8.12640 30543 ft 389 kts 178°
2026-05-06 07:55 50.32264 8.12984 31040 ft 385 kts 178°
2026-05-06 07:55 50.29606 8.13325 31548 ft 380 kts 178°
2026-05-06 07:55 50.27032 8.13660 32063 ft 376 kts 178°
2026-05-06 07:55 50.24442 8.14000 32593 ft 371 kts 178°
2026-05-06 07:56 50.21891 8.14334 33129 ft 365 kts 178°
2026-05-06 07:56 50.19376 8.14663 33617 ft 361 kts 178°
2026-05-06 07:56 50.16833 8.15044 33843 ft 364 kts 174°
2026-05-06 07:56 50.14365 8.15851 33981 ft 370 kts 167°
2026-05-06 07:57 50.11924 8.17201 34114 ft 376 kts 159°
2026-05-06 07:57 50.09548 8.19118 34233 ft 383 kts 152°
2026-05-06 07:57 50.07286 8.21236 34358 ft 386 kts 153°
2026-05-06 07:57 50.04942 8.23417 34468 ft 389 kts 153°
2026-05-06 07:58 50.02603 8.25582 34590 ft 392 kts 153°
2026-05-06 07:58 50.00282 8.27724 34738 ft 394 kts 153°
2026-05-06 07:58 49.95471 8.32149 34802 ft 405 kts 153°
2026-05-06 07:59 49.90552 8.36666 34795 ft 417 kts 153°
2026-05-06 07:59 49.85512 8.41391 34791 ft 430 kts 148°
2026-05-06 08:00 49.81705 8.46534 34777 ft 443 kts 140°
2026-05-06 08:00 49.77181 8.53141 34781 ft 450 kts 140°
2026-05-06 08:01 49.72305 8.59076 34795 ft 443 kts 155°
2026-05-06 08:01 49.66604 8.62346 34800 ft 434 kts 172°
2026-05-06 08:02 49.60672 8.63990 34800 ft 432 kts 173°
2026-05-06 08:02 49.54754 8.65624 34813 ft 432 kts 173°
2026-05-06 08:03 49.48843 8.67265 34821 ft 431 kts 173°
2026-05-06 08:03 49.43112 8.70064 34820 ft 435 kts 161°
2026-05-06 08:04 49.37527 8.73593 34815 ft 433 kts 161°
2026-05-06 08:04 49.31947 8.77092 34823 ft 432 kts 161°
2026-05-06 08:05 49.26385 8.80579 34820 ft 431 kts 161°
2026-05-06 08:05 49.20835 8.84043 34818 ft 430 kts 162°
2026-05-06 08:06 49.15293 8.87483 34816 ft 429 kts 162°
2026-05-06 08:06 49.09766 8.90921 34812 ft 429 kts 162°
2026-05-06 08:07 49.04241 8.94352 34808 ft 428 kts 162°
2026-05-06 08:07 48.98725 8.97767 34805 ft 428 kts 162°
2026-05-06 08:08 48.93212 9.01182 34802 ft 428 kts 162°
2026-05-06 08:08 48.87700 9.04579 34798 ft 428 kts 162°
2026-05-06 08:09 48.82146 9.07989 34795 ft 428 kts 162°
2026-05-06 08:09 48.76614 9.11375 34793 ft 429 kts 162°
2026-05-06 08:10 48.71082 9.14752 34794 ft 429 kts 163°
2026-05-06 08:10 48.65533 9.18134 34793 ft 430 kts 163°
2026-05-06 08:11 48.59984 9.21519 34792 ft 430 kts 163°
2026-05-06 08:11 48.54433 9.24889 34791 ft 431 kts 163°
2026-05-06 08:12 48.48866 9.28257 34789 ft 431 kts 163°
2026-05-06 08:12 48.43297 9.31619 34793 ft 431 kts 164°
2026-05-06 08:13 48.37731 9.34967 34801 ft 431 kts 164°
2026-05-06 08:13 48.32173 9.38318 34816 ft 430 kts 164°
2026-05-06 08:14 48.26624 9.41662 34820 ft 429 kts 164°
2026-05-06 08:14 48.21083 9.44975 34829 ft 428 kts 165°
2026-05-06 08:15 48.15559 9.48267 34835 ft 427 kts 165°
2026-05-06 08:15 48.10051 9.51546 34833 ft 425 kts 165°
2026-05-06 08:16 48.04594 9.54790 34830 ft 425 kts 165°
2026-05-06 08:16 47.99345 9.59005 34825 ft 435 kts 152°
2026-05-06 08:17 47.94352 9.64141 34823 ft 435 kts 153°
2026-05-06 08:17 47.89355 9.69242 34828 ft 435 kts 153°
2026-05-06 08:18 47.84365 9.74319 34824 ft 434 kts 153°
2026-05-06 08:18 47.81456 9.77268 34827 ft 434 kts 153°
2026-05-06 08:19 47.76466 9.82329 34830 ft 434 kts 153°
2026-05-06 08:19 47.71472 9.87387 34828 ft 434 kts 153°
2026-05-06 08:20 47.66476 9.92435 34831 ft 434 kts 153°
2026-05-06 08:20 47.61486 9.97462 34828 ft 434 kts 153°
2026-05-06 08:21 47.56488 10.02486 34824 ft 434 kts 153°
2026-05-06 08:21 47.51485 10.07509 34822 ft 434 kts 153°
2026-05-06 08:22 47.46486 10.12507 34815 ft 434 kts 153°
2026-05-06 08:22 47.41482 10.17502 34815 ft 434 kts 153°
2026-05-06 08:23 47.39003 10.19975 34804 ft 423 kts 153°
2026-05-06 08:23 47.36622 10.22358 34806 ft 406 kts 153°
2026-05-06 08:23 47.34332 10.24654 34804 ft 390 kts 153°
2026-05-06 08:23 47.32113 10.26871 34814 ft 383 kts 154°
2026-05-06 08:24 47.27721 10.31208 34805 ft 379 kts 154°
2026-05-06 08:24 47.23333 10.35523 34810 ft 379 kts 154°
2026-05-06 08:25 47.18953 10.39847 34818 ft 379 kts 154°
2026-05-06 08:25 47.14573 10.44161 34816 ft 379 kts 154°
2026-05-06 08:26 47.10209 10.48458 34808 ft 377 kts 154°
2026-05-06 08:26 47.05768 10.52519 34809 ft 371 kts 162°
2026-05-06 08:27 47.00984 10.55018 34816 ft 364 kts 170°
2026-05-06 08:27 46.96137 10.57193 34822 ft 365 kts 170°
2026-05-06 08:28 46.91292 10.59392 34830 ft 365 kts 170°
2026-05-06 08:28 46.86427 10.61596 34842 ft 366 kts 170°
2026-05-06 08:29 46.81562 10.63779 34844 ft 365 kts 171°
2026-05-06 08:29 46.76693 10.65962 34859 ft 366 kts 170°
2026-05-06 08:30 46.71824 10.68129 34870 ft 365 kts 172°
2026-05-06 08:30 46.66916 10.69866 34888 ft 362 kts 175°
2026-05-06 08:31 46.61983 10.71369 34900 ft 362 kts 175°
2026-05-06 08:31 46.57053 10.72905 34902 ft 362 kts 175°
2026-05-06 08:32 46.52127 10.74499 34915 ft 363 kts 175°
2026-05-06 08:32 46.47197 10.76123 34927 ft 363 kts 175°
2026-05-06 08:33 46.42275 10.77735 34937 ft 363 kts 175°
2026-05-06 08:33 46.37366 10.79329 34938 ft 361 kts 175°
2026-05-06 08:34 46.30005 10.81695 34944 ft 360 kts 175°
2026-05-06 08:35 46.25107 10.83277 34948 ft 360 kts 175°
2026-05-06 08:35 46.20221 10.84859 34947 ft 360 kts 175°
2026-05-06 08:36 46.15335 10.86437 34940 ft 359 kts 176°
2026-05-06 08:36 46.10459 10.87990 34935 ft 358 kts 176°
2026-05-06 08:37 46.05588 10.89550 34936 ft 358 kts 176°
2026-05-06 08:37 46.01511 10.90859 34942 ft 359 kts 176°
2026-05-06 08:38 45.95855 10.92664 34939 ft 358 kts 176°
2026-05-06 08:38 45.90994 10.94206 34937 ft 358 kts 176°
2026-05-06 08:39 45.86920 10.95498 34930 ft 357 kts 176°
2026-05-06 08:39 45.82081 10.97037 34922 ft 356 kts 176°
2026-05-06 08:40 45.77245 10.98583 34918 ft 355 kts 176°
2026-05-06 08:40 45.72409 11.00119 34919 ft 356 kts 176°
2026-05-06 08:41 45.67573 11.01640 34909 ft 355 kts 176°
2026-05-06 08:41 45.62735 11.03245 34909 ft 359 kts 174°
2026-05-06 08:42 45.57949 11.05329 34900 ft 361 kts 171°
2026-05-06 08:42 45.53164 11.07561 34897 ft 361 kts 171°
2026-05-06 08:43 45.48380 11.09718 34889 ft 361 kts 172°
2026-05-06 08:43 45.43577 11.11824 34892 ft 361 kts 172°
2026-05-06 08:44 45.38774 11.13924 34893 ft 361 kts 172°
2026-05-06 08:44 45.33927 11.16036 33656 ft 377 kts 172°
2026-05-06 08:44 45.31347 11.17136 32269 ft 395 kts 172°
2026-05-06 08:45 45.28685 11.18283 31217 ft 405 kts 171°
2026-05-06 08:45 45.25963 11.19472 30298 ft 411 kts 170°
2026-05-06 08:45 45.23221 11.20679 29310 ft 415 kts 170°
2026-05-06 08:45 45.20457 11.21898 28283 ft 418 kts 169°
2026-05-06 08:46 45.17667 11.23125 27268 ft 421 kts 169°
2026-05-06 08:46 45.14860 11.24350 26276 ft 424 kts 169°
2026-05-06 08:46 45.12036 11.25575 25406 ft 426 kts 168°
2026-05-06 08:46 45.09191 11.26804 25080 ft 429 kts 168°
2026-05-06 08:47 45.06327 11.28036 24903 ft 431 kts 168°
2026-05-06 08:47 45.03463 11.29271 24928 ft 432 kts 168°
2026-05-06 08:47 45.00593 11.30512 24929 ft 432 kts 168°
2026-05-06 08:47 44.97713 11.31760 24939 ft 432 kts 168°
2026-05-06 08:48 44.94837 11.33004 24936 ft 432 kts 168°
2026-05-06 08:48 44.91953 11.34248 24942 ft 432 kts 168°
2026-05-06 08:48 44.89066 11.35492 25000 ft 437 kts 168°
2026-05-06 08:48 44.86145 11.36745 25117 ft 441 kts 168°
2026-05-06 08:49 44.83195 11.38009 25227 ft 445 kts 168°
2026-05-06 08:49 44.80223 11.39283 25183 ft 445 kts 168°
2026-05-06 08:49 44.77275 11.40546 24223 ft 445 kts 168°
2026-05-06 08:49 44.74277 11.41825 23730 ft 451 kts 168°
2026-05-06 08:50 44.71264 11.43114 23952 ft 452 kts 167°
2026-05-06 08:50 44.68260 11.44402 24197 ft 453 kts 168°
2026-05-06 08:50 44.65251 11.45689 24444 ft 452 kts 168°
2026-05-06 08:50 44.62242 11.46975 24701 ft 451 kts 168°
2026-05-06 08:51 44.59248 11.48250 24861 ft 452 kts 168°
2026-05-06 08:51 44.56240 11.49528 24908 ft 453 kts 168°
2026-05-06 08:51 44.53222 11.50808 24904 ft 453 kts 168°
2026-05-06 08:51 44.50203 11.52086 24904 ft 453 kts 168°
2026-05-06 08:52 44.47181 11.53365 24909 ft 454 kts 168°
2026-05-06 08:52 44.44155 11.54645 24917 ft 454 kts 168°
2026-05-06 08:52 44.41133 11.55926 24923 ft 454 kts 168°
2026-05-06 08:52 44.38106 11.57207 24925 ft 455 kts 168°
2026-05-06 08:53 44.35074 11.58486 24931 ft 455 kts 168°
2026-05-06 08:53 44.32043 11.59760 24943 ft 455 kts 167°
2026-05-06 08:53 44.29007 11.61034 24951 ft 455 kts 168°
2026-05-06 08:53 44.25973 11.62307 24953 ft 456 kts 168°
2026-05-06 08:54 44.22937 11.63582 24949 ft 456 kts 167°
2026-05-06 08:54 44.19901 11.64858 24950 ft 456 kts 168°
2026-05-06 08:54 44.16866 11.66134 24950 ft 456 kts 167°
2026-05-06 08:54 44.13826 11.67414 24951 ft 456 kts 167°
2026-05-06 08:55 44.10789 11.68690 24951 ft 456 kts 167°
2026-05-06 08:55 44.07746 11.69960 24952 ft 457 kts 167°
2026-05-06 08:55 44.04695 11.71229 24952 ft 457 kts 167°
2026-05-06 08:55 44.01644 11.72497 24958 ft 458 kts 167°
2026-05-06 08:56 43.98593 11.73768 24959 ft 458 kts 167°
2026-05-06 08:56 43.95540 11.75037 24965 ft 458 kts 167°
2026-05-06 08:56 43.92483 11.76306 24971 ft 459 kts 167°
2026-05-06 08:56 43.89424 11.77574 24974 ft 459 kts 167°
2026-05-06 08:57 43.86358 11.78844 24975 ft 459 kts 167°
2026-05-06 08:57 43.83299 11.80111 24977 ft 459 kts 167°
2026-05-06 08:57 43.80240 11.81377 24973 ft 459 kts 167°
2026-05-06 08:57 43.77179 11.82635 24984 ft 459 kts 168°
2026-05-06 08:58 43.74105 11.83775 24853 ft 455 kts 170°
2026-05-06 08:58 43.71040 11.84782 24620 ft 450 kts 171°
2026-05-06 08:58 43.68027 11.85693 24386 ft 448 kts 171°
2026-05-06 08:58 43.64975 11.86589 24149 ft 447 kts 171°
2026-05-06 08:59 43.61940 11.87488 23924 ft 446 kts 171°
2026-05-06 08:59 43.58906 11.88413 23694 ft 445 kts 171°
2026-05-06 08:59 43.55890 11.89361 23444 ft 444 kts 170°
2026-05-06 08:59 43.52884 11.90321 23168 ft 443 kts 170°
2026-05-06 09:00 43.49891 11.91279 22894 ft 441 kts 170°
2026-05-06 09:00 43.46858 11.92251 22627 ft 440 kts 170°
2026-05-06 09:00 43.43924 11.93190 22358 ft 439 kts 170°
2026-05-06 09:00 43.40953 11.94138 22088 ft 437 kts 170°
2026-05-06 09:01 43.37992 11.95077 21826 ft 436 kts 170°
2026-05-06 09:01 43.35043 11.96010 21567 ft 434 kts 170°
2026-05-06 09:01 43.32106 11.96939 21310 ft 433 kts 170°
2026-05-06 09:01 43.29135 11.97876 21054 ft 432 kts 170°
2026-05-06 09:02 43.26215 11.98793 20796 ft 430 kts 170°
2026-05-06 09:02 43.23336 11.99694 20550 ft 429 kts 170°
2026-05-06 09:02 43.20433 12.00604 20313 ft 428 kts 170°
2026-05-06 09:02 43.17532 12.01518 20058 ft 427 kts 170°
2026-05-06 09:03 43.14642 12.02429 19813 ft 426 kts 170°
2026-05-06 09:03 43.11760 12.03336 19570 ft 424 kts 170°
2026-05-06 09:03 43.08885 12.04236 19325 ft 423 kts 170°
2026-05-06 09:03 43.06017 12.05130 19085 ft 422 kts 170°
2026-05-06 09:04 43.03161 12.06021 18850 ft 421 kts 170°
2026-05-06 09:04 43.00266 12.06925 18611 ft 420 kts 170°
2026-05-06 09:04 42.97429 12.07812 18374 ft 418 kts 170°
2026-05-06 09:04 42.94588 12.08695 18128 ft 417 kts 171°
2026-05-06 09:05 42.91766 12.09572 17864 ft 416 kts 170°
2026-05-06 09:05 42.88998 12.10432 17595 ft 408 kts 171°
2026-05-06 09:05 42.86276 12.11280 17328 ft 396 kts 171°
2026-05-06 09:05 42.83601 12.12116 17069 ft 385 kts 171°
2026-05-06 09:06 42.81017 12.12921 16814 ft 376 kts 171°
2026-05-06 09:06 42.78499 12.13697 16555 ft 367 kts 171°
2026-05-06 09:06 42.76034 12.14455 16300 ft 359 kts 171°
2026-05-06 09:06 42.73634 12.15196 16048 ft 351 kts 171°
2026-05-06 09:07 42.71270 12.15928 15800 ft 344 kts 170°
2026-05-06 09:07 42.69037 12.17035 15542 ft 340 kts 156°
2026-05-06 09:07 42.67033 12.18619 15301 ft 329 kts 154°
2026-05-06 09:07 42.65087 12.20191 15080 ft 321 kts 154°
2026-05-06 09:08 42.63186 12.21716 14991 ft 314 kts 154°
2026-05-06 09:08 42.61306 12.23219 14998 ft 314 kts 154°
2026-05-06 09:08 42.59424 12.24720 14755 ft 313 kts 154°
2026-05-06 09:08 42.57557 12.26208 14513 ft 311 kts 154°
2026-05-06 09:09 42.55692 12.27696 14275 ft 310 kts 154°
2026-05-06 09:09 42.53834 12.29176 14039 ft 309 kts 154°
2026-05-06 09:09 42.51979 12.30651 13796 ft 308 kts 154°
2026-05-06 09:09 42.50135 12.32119 13540 ft 307 kts 154°
2026-05-06 09:10 42.48295 12.33583 13269 ft 306 kts 154°
2026-05-06 09:10 42.46462 12.35042 13050 ft 304 kts 154°
2026-05-06 09:10 42.44642 12.36487 12999 ft 304 kts 154°
2026-05-06 09:10 42.42814 12.37935 13000 ft 304 kts 154°
2026-05-06 09:11 42.40987 12.39382 13004 ft 304 kts 154°
2026-05-06 09:11 42.39189 12.40812 13001 ft 294 kts 154°
2026-05-06 09:11 42.37461 12.42195 13001 ft 284 kts 154°
2026-05-06 09:11 42.35731 12.43407 13010 ft 277 kts 165°
2026-05-06 09:12 42.33903 12.44194 13007 ft 275 kts 167°
2026-05-06 09:12 42.32077 12.44960 12995 ft 275 kts 168°
2026-05-06 09:12 42.30245 12.45731 12621 ft 278 kts 167°
2026-05-06 09:12 42.28397 12.46509 12319 ft 278 kts 168°
2026-05-06 09:13 42.26554 12.47286 11983 ft 277 kts 167°
2026-05-06 09:13 42.24714 12.47997 11719 ft 270 kts 177°
2026-05-06 09:13 42.22939 12.47767 11550 ft 250 kts 206°
2026-05-06 09:13 42.21574 12.46441 11256 ft 241 kts 234°
2026-05-06 09:14 42.20854 12.44438 10926 ft 239 kts 252°
2026-05-06 09:14 42.20364 12.42296 10613 ft 239 kts 252°
2026-05-06 09:14 42.19874 12.40166 10317 ft 236 kts 252°
2026-05-06 09:14 42.19390 12.38059 9829 ft 235 kts 253°
2026-05-06 09:15 42.19261 12.35886 9466 ft 237 kts 280°
2026-05-06 09:15 42.20063 12.33939 9090 ft 246 kts 314°
2026-05-06 09:15 42.21583 12.32909 9006 ft 251 kts 338°
2026-05-06 09:15 42.23268 12.32211 9002 ft 254 kts 338°
2026-05-06 09:16 42.24962 12.31503 9003 ft 255 kts 337°
2026-05-06 09:16 42.26087 12.31030 8794 ft 257 kts 337°
2026-05-06 09:16 42.27791 12.30313 8497 ft 255 kts 337°
2026-05-06 09:16 42.29474 12.29607 8362 ft 254 kts 337°
2026-05-06 09:17 42.31163 12.28895 8256 ft 254 kts 337°
2026-05-06 09:17 42.32851 12.28186 8153 ft 254 kts 337°
2026-05-06 09:17 42.34535 12.27476 8036 ft 253 kts 337°
2026-05-06 09:17 42.36207 12.26766 8003 ft 253 kts 337°
2026-05-06 09:18 42.37894 12.26047 7905 ft 255 kts 337°
2026-05-06 09:18 42.39563 12.25290 7743 ft 250 kts 328°
2026-05-06 09:18 42.40866 12.23865 7634 ft 237 kts 299°
2026-05-06 09:18 42.41478 12.21860 7517 ft 228 kts 272°
2026-05-06 09:19 42.41341 12.19780 7500 ft 223 kts 250°
2026-05-06 09:19 42.40863 12.17780 7499 ft 223 kts 250°
2026-05-06 09:19 42.40395 12.15784 7499 ft 222 kts 250°
2026-05-06 09:19 42.39930 12.13788 7498 ft 222 kts 251°
2026-05-06 09:20 42.39439 12.11806 7496 ft 222 kts 243°
2026-05-06 09:20 42.38338 12.10149 7074 ft 257 kts 210°
2026-05-06 09:20 42.36614 12.09708 6864 ft 253 kts 178°
2026-05-06 09:20 42.34923 12.10200 6732 ft 246 kts 168°
2026-05-06 09:21 42.33346 12.10956 6641 ft 235 kts 164°
2026-05-06 09:21 42.31856 12.11736 6544 ft 226 kts 165°
2026-05-06 09:21 42.30389 12.12483 6451 ft 224 kts 165°
2026-05-06 09:21 42.28923 12.13192 6366 ft 223 kts 166°
2026-05-06 09:22 42.27454 12.13869 6277 ft 223 kts 167°
2026-05-06 09:22 42.25985 12.14527 6186 ft 222 kts 167°
2026-05-06 09:22 42.24522 12.15168 6085 ft 221 kts 167°
2026-05-06 09:22 42.23064 12.15793 6008 ft 219 kts 168°
2026-05-06 09:23 42.21606 12.16412 6015 ft 220 kts 168°
2026-05-06 09:23 42.20137 12.17034 6013 ft 221 kts 168°
2026-05-06 09:23 42.18653 12.17664 5731 ft 228 kts 166°
2026-05-06 09:23 42.17100 12.18319 5123 ft 240 kts 166°
2026-05-06 09:24 42.15457 12.18950 4442 ft 250 kts 174°
2026-05-06 09:24 42.13741 12.18824 4054 ft 245 kts 194°
2026-05-06 09:24 42.12102 12.18309 3700 ft 241 kts 193°
2026-05-06 09:24 42.10485 12.17824 3431 ft 235 kts 192°
2026-05-06 09:25 42.08910 12.17361 3216 ft 228 kts 192°
2026-05-06 09:25 42.07379 12.16958 3054 ft 219 kts 184°
2026-05-06 09:25 42.05915 12.17182 2956 ft 209 kts 165°
2026-05-06 09:25 42.04570 12.17755 2954 ft 197 kts 165°
2026-05-06 09:26 42.03299 12.18290 2958 ft 187 kts 165°
2026-05-06 09:26 42.02103 12.18794 2973 ft 172 kts 165°
2026-05-06 09:26 42.01007 12.19256 2944 ft 159 kts 166°
2026-05-06 09:26 41.99970 12.19692 2940 ft 154 kts 165°
2026-05-06 09:27 41.98958 12.20118 2860 ft 151 kts 165°
2026-05-06 09:27 41.97960 12.20538 2690 ft 150 kts 165°
2026-05-06 09:27 41.96971 12.20953 2499 ft 148 kts 165°
2026-05-06 09:27 41.95996 12.21363 2309 ft 147 kts 165°
2026-05-06 09:28 41.95027 12.21770 2099 ft 145 kts 164°
2026-05-06 09:28 41.94104 12.22159 1949 ft 133 kts 164°
2026-05-06 09:28 41.93254 12.22516 1771 ft 124 kts 163°
2026-05-06 09:28 41.92442 12.22857 1619 ft 121 kts 163°
2026-05-06 09:29 41.91642 12.23193 1443 ft 120 kts 163°
2026-05-06 09:29 41.90848 12.23526 1289 ft 120 kts 165°
2026-05-06 09:29 41.90055 12.23859 1129 ft 119 kts 164°
2026-05-06 09:29 41.89260 12.24192 974 ft 120 kts 164°
2026-05-06 09:30 41.88452 12.24531 835 ft 123 kts 165°
2026-05-06 09:30 41.87624 12.24879 673 ft 126 kts 162°
2026-05-06 09:30 41.86782 12.25232 516 ft 126 kts 162°
2026-05-06 09:30 41.85980 12.25568 328 ft 113 kts 162°
2026-05-06 09:31 41.85234 12.25885 158 ft 127 kts 160°
2026-05-06 09:31 41.84451 12.26213 180 ft 110 kts 160°
2026-05-06 09:31 41.83697 12.26545 24 ft 111 kts 161°
2026-05-06 09:31 41.83086 12.26801 21 ft 71 kts 163°
2026-05-06 09:32 41.82773 12.26873 24 ft 35 kts 182°
2026-05-06 09:32 41.82546 12.26819 19 ft 32 kts 191°
2026-05-06 09:32 41.82333 12.26776 16 ft 30 kts 175°
2026-05-06 09:32 41.82138 12.26851 15 ft 29 kts 161°
2026-05-06 09:33 41.82097 12.26870 14 ft 0 kts 160°
2026-05-06 09:33 41.82096 12.26871 14 ft 0 kts 161°
2026-05-06 09:33 41.82092 12.26872 15 ft 1 kts 161°
2026-05-06 09:34 41.82082 12.26877 16 ft 3 kts 161°
2026-05-06 09:34 41.82055 12.26889 15 ft 6 kts 161°
2026-05-06 09:34 41.82014 12.26907 16 ft 7 kts 162°
2026-05-06 09:34 41.81962 12.26930 17 ft 10 kts 162°
2026-05-06 09:35 41.81870 12.26948 15 ft 17 kts 185°
2026-05-06 09:35 41.81745 12.26913 18 ft 18 kts 192°
2026-05-06 09:35 41.81628 12.26933 22 ft 17 kts 159°
2026-05-06 09:35 41.81505 12.26982 21 ft 21 kts 164°
2026-05-06 09:36 41.81368 12.27042 19 ft 21 kts 160°
2026-05-06 09:36 41.81221 12.27100 16 ft 23 kts 164°
2026-05-06 09:36 41.81071 12.27169 15 ft 23 kts 161°
2026-05-06 09:36 41.80912 12.27235 11 ft 25 kts 162°
2026-05-06 09:37 41.80750 12.27292 15 ft 23 kts 179°
2026-05-06 09:37 41.80636 12.27161 15 ft 24 kts 247°
2026-05-06 09:37 41.80576 12.26945 15 ft 25 kts 249°
2026-05-06 09:37 41.80519 12.26717 14 ft 27 kts 249°
2026-05-06 09:38 41.80447 12.26482 15 ft 28 kts 250°
2026-05-06 09:38 41.80376 12.26230 15 ft 30 kts 249°
2026-05-06 09:38 41.80303 12.25967 14 ft 31 kts 249°
2026-05-06 09:38 41.80230 12.25691 16 ft 32 kts 252°
2026-05-06 09:39 41.80162 12.25438 20 ft 21 kts 249°
2026-05-06 09:39 41.80110 12.25250 19 ft 22 kts 250°
2026-05-06 09:39 41.80103 12.25052 19 ft 20 kts 286°
2026-05-06 09:39 41.80104 12.24872 17 ft 19 kts 255°
2026-05-06 09:40 41.80011 12.24797 18 ft 13 kts 169°
2026-05-06 09:40 41.79973 12.24726 16 ft 11 kts 258°
2026-05-06 09:40 41.79885 12.24423 15 ft 16 kts 213°
2026-05-06 09:41 41.79788 12.24451 15 ft 15 kts 160°
2026-05-06 09:41 41.79695 12.24497 15 ft 13 kts 160°
2026-05-06 09:41 41.79684 12.24555 14 ft 6 kts 70°
2026-05-06 09:41 41.79688 12.24573 14 ft 2 kts 71°
2026-05-06 09:42 41.79693 12.24593 14 ft 2 kts 72°
2026-05-06 09:42 41.79697 12.24608 16 ft 2 kts 70°
2026-05-06 09:42 41.79699 12.24616 15 ft 0 kts 70°